METAR LOCAUX

2020/07/10 20:00 LFST 102000Z AUTO 32006KT 9999 SCT058 BKN074 OVC100 20/13 Q1017 NOSIG
2020/07/10 19:50 EDSB 101950Z VRB02KT 9999 -RA SCT048 21/13 Q1017
2020/07/10 20:00 LFGA 102000Z AUTO 35007KT CAVOK 21/12 Q1017
www.noaa.gov

Ne pas utiliser pour préparer ou effectuer un vol: Utilisez la documentation officielle disponible sur aviation.meteo.fr (Aéroweb)


"Le soleil du matin ne dure pas forcément toute la journée."

Animation satellite IR

Meteociel.fr

"Derrière chaque nuage se cache le ciel bleu."

Radar pluie

Infoclimat.fr

"Si tu veux l’arc-en-ciel, tu dois supporter la pluie."
Dolly Parton

Nébulosité (octas)

Meteociel.fr

"Le soleil est souvent obscurci par les nuages et la raison par les passions."
Démophile

Impacts de foudre

www.meteo60.fr

"Celui que frappe la foudre n'entend pas le tonnerre."

Vigilance météo

vigilance-meteo.fr

"Tout nuage n'enfante pas une tempête."
William Shakespeare

TAF locaux

2020/07/10 18:21 TAF LFST 101700Z 1018/1118 32010KT CAVOK PROB40 TEMPO 1022/1104 -SHRA BECMG 1104/1106 03010KT
2020/07/10 18:27 TAF EDSB 101700Z 1018/1118 36005KT 9999 SCT045 PROB30 TEMPO 1020/1102 RA
www.noaa.gov

Ne pas utiliser pour préparer ou effectuer un vol: Utilisez la documentation officielle disponible sur aviation.meteo.fr (Aéroweb)


"Les jours où le ciel est gris, le soleil n'a pas disparu à tout jamais."
Arnaud Desjardins

Prévisions 7 jours


Meteoblue.com

"Quand les crapauds chantent, le beau temps s'avance !"